User: anonymous   Login
Location: Fauquembergues
(50.6005°N, 2.0987°E)
Time: 19:27:53
(UTC+00:00)
Language:

H-2A R/B - Orbit

View from above orbital plane
View from above orbital plane
View from above satellite
View from above satellite

Ground track
Ground track

The orbit data is extracted from the following two-line orbital elements,

1 38341U 12025E   20263.16706939  .00000138  00000-0  23900-4 0  9993
2 38341  98.5119  64.3137 0054352 291.3465  68.1952 14.84070430451346
Epoch (UTC): 19 September 2020 04:00:34
Eccentricity: 0.0054352
inclination: 98.5119°
perigee height: 578 km
apogee height: 654 km
right ascension of ascending node: 64.3137°
argument of perigee: 291.3465°
revolutions per day: 14.84070430
mean anomaly at epoch: 68.1952°
orbit number at epoch: 45134

The dashed part of the orbit path shows where the satellite is in the earth's shadow,  

DLR